Погода Большая Мурта

Погода Большая Мурта : погода сейчас, прогноз погоды и архив. Всё, что Вы хотите узнать о погоде Большая Мурта!

Хотите узнать прогноз погоды Большая Мурта? Тогда Вам сюда: Погода Большая Мурта

Поиск расширенной информации на нашем сайте:

Другие новости

Новости СМИ2

Главная страница сайта

Новости сайта

03.07.2017

Напоминаем, что на нашем специализированном сайте Метеоцентр.Азия вы можете получить высокодетализированные автоматические прогнозы погоды по пунктам России, СНГ и мира в авиационном формате (включающие направление и скорость ветра, видимость, явления погоды, количество и форму облачности, нижнюю и верхнюю границу облачности).


Погода Большая Мурта - сегодня

Время (UTC), дата Ветер
(°,м/с) 
Видим.   Явления Облачность Т
(°С)
Тd
(°С)
f(%) Тe
(°С)
Pmin
(гПа)
dP
(гПа)
Po
(мм)
O2
(г/м3)
Тmin Tmax R s Состояние
почвы
09 26.07.17 200 (Ю) 20000 м    8/8 600 м кучево-дожд. 
[Cb cap]
+24.8 +14.7 53 +33  1001.8  0.2  736  269           
12 26.07.17 тихо ()   20000 м  в посл. час гроза  10/10 600 м кучево-дожд. 
[Cb cap]
+21 +17.8 82 +36  1002.7  0.7  737  272    +25.5  0.0     
15 26.07.17 100 (В) 4000 м  дымка{ливн. осадки}  10/10 600 м кучево-дожд. 
[Cb cap]
+13.2 +19.1 100 +31  1003  0.2  737  278           
18 26.07.17 тихо ()   4000 м  дымка{ливн. осадки}  3/3 600 м кучево-дожд. 
[Cb cap]
+17.3 +17.3 100 +31  1003.4  0.2  737  275           
21 26.07.17 170 (Ю) 4000 м  дымка  10/10 600 м кучево-дожд. 
[Cb cap]
+17.5 +17.5 100 +33  1003.6  0.2  737  275           
00 27.07.17 270 (З) 10 км    9/9 600 м кучево-дожд. 
[Cb cap]
+19.3 +18.5 95 +37  1004.2  0.8  738  273  +17.3    0.0    влажная 
03 27.07.17 290 (З) 20000 м    9/9 600 м кучево-дожд. 
[Cb cap]
+21.7 +18.5 82 +38  1005  0.9  738  271           
06 27.07.17 270 (З) 20000 м    8/8 600 м кучево-дожд. 
[Cb cap]
+25.8 +16.9 58 +38  1004.3  -0.4  738  268           
09 27.07.17 260 (З) 20000 м    8/8 600 м кучево-дожд. 
[Cb cap]
+27.1 +15.4 49 +37  1004.2  -0.1  738  267           
12 27.07.17 230 (ЮЗ) 20000 м  {ливн. осадки}  6/6 600 м кучево-дожд. 
[Cb cap]
+26.3 +17.1 57 +39  1004.5  0.3  738  268    +28  0.7     
15 27.07.17 260 (З) 20000 м  {ливн. осадки}  3/3 600 м кучево-дожд. 
[Cb cap]
+19.9 +19.4 97 +39  1005.3  0.4  738  273           
18 27.07.17 тихо ()   20000 м  {ливн. осадки}  ясно 
+17.2 +17.2 100 +30  1005.8  0.3  739  276           
21 27.07.17 тихо ()   20000 м    ясно 
+15.5 +15.5 100 +25  1006  739  278           
00 28.07.17 050 (СВ) 10 км    3/0 верхняя 
[Ci fib]
+18.4 +18 98 +35  1006.6  0.8  739  275  +15    0.3    влажная 
03 28.07.17 080 (В) 10 км  {туман}  4/0 верхняя 
[Ci fib]
+24.2 +20.4 79 +44  1005.6  -0.5  739  268           
06 28.07.17 130 (ЮВ) 20000 м  {туман}  6/3 1000 м верхняя 
[Cu med, cong|Ci fib]
+28.4 +16 47 +39  1004.5  -0.8  738  266           
09 28.07.17 120 (ЮВ) 20000 м    8/0 верхняя 
[Ci]
+30.2 +14.5 38 +38  1003  -1.4  737  265           
12 28.07.17 100 (В) 20000 м    9/4 600 м кучево-дожд., средняя 
[Cb cap|Ac trans]
+27.8 +18 55 +43  1002.7  -0.5  737  265    +30.3       
15 28.07.17 150 (ЮВ) 20000 м    9/3 1000 м средняя, верхняя 
[Cu med, cong|Ac lent|Ci sp]
+22.4 +20.2 87 +42  1002.3  -0.7  736  269           
18 28.07.17 120 (ЮВ) 20000 м    ясно 
+21.7 +18.5 82 +38  1000.8  -1.5  735  270           
21 28.07.17 110 (В) 20000 м    10/10 600 м кучево-дожд. 
[Cb cap]
+20.7 +18.7 88 +37  1000.2  -0.7  735  271           
00 29.07.17 170 (Ю) 20000 м    9/6 600 м кучево-дожд., средняя, верхняя 
[Cb cap|Ac lent|Ci fib]
+21.9 +17.9 78 +37  999  -1  734  270  +19.8        сухая 
03 29.07.17 140 (ЮВ) 20000 м  {ливн. осадки}  10/10 600 м кучево-дожд. 
[Cb cap]
+21.6 +19.7 89 +40  998.2  -0.8  733  269           
06 29.07.17 060 (СВ) 20000 м  {ливн. осадки}  9/4 600 м кучево-дожд., верхняя 
[Cb cap|Ci]
+25.3 +19.5 70 +44  997.8  -0.2  733  266           
09 29.07.17 260 (З) 20000 м    9/6 600 м кучево-дожд., верхняя 
[Cb cap|Ci]
+26 +16.8 57 +39  998.1  0.4  734  266           
Время (UTC), дата Ветер
(°,м/с) 
Видим.   Явления Облачность Т
(°С)
Тd
(°С)
f(%) Тe
(°С)
Pmin
(гПа)
dP
(гПа)
Po
(мм)
O2
(г/м3)
Тmin Tmax R s Состояние
почвы

Для получения пояснительной информации подведите курсор к названию столбца.

ПОГОДА Большая Мурта - архив

Всё, что Вы хотите узнать о погоде Большая Мурта - удобно и подробно!

Выберите нужную дату (начиная с 1 января 2015* года) и нажмите кнопку "Найти".
Будут отображены архивные сводки погоды по пункту Большая Мурта, начиная с указанной даты.


Отображать данные в формате CSV (для использования в таблицах Excel)


Внимание! Наш архив погоды предназначен исключительно для личного некоммерческого использования в познавательных целях. Если Вам необходимы официальные справки о состоянии погоды (для производственных, юридических, коммерческих и т.п. целей), обращайтесь в органы Росгидромета.

*Примечание: данная дата относится к архиву по метеостанциям СССР (Россия, СНГ, Балтия).
Архив по метеостанциям Зарубежной Европы и Азии (кроме Китая) хранится 10 дней, по другим регионам земного шара (Китай, Африка, Америка, Австралия, Океания) - 1 день.

Большая Мурта - район местоположения метеостанции


Название, широта, долгота, высота метеостанции:
Большая Мурта 56.9°ш. 93.1°д. 180 м над ур. моря [Российская Федерация]

Дополнительная информация

В oтличие oт бoльшинства пoгoдных сайтoв мы публикуем пoдрoбную метеoинфoрмацию в детальнoм прoфессиoнальнoм фoрмате.

Характеристики температуры и влажнoсти вoздуха измеряются на высoте 2 м в тени вдали oт зданий и деревьев.
Скoрoсть ветра измеряется на высoте 10 м (на урoвне рoста челoвека скoрoсть ветра ниже в 1.5-2 раза). Если метеoстанция нахoдится в гoрoде или в лесу, тo скoрoсть ветра занижена на 2-4 м/с пo сравнению с oткрытым местoм. Скoрoсть ветра над акватoриями крупных рек и oзёр, а также на вершинах хoлмoв на 2-5 м/с выше, чем в oбычных услoвиях.
Атмoсфернoе давление в разных тoчках местнoсти мoжет значительнo oтличаться oт давления на метеoстанции, в зависимoсти oт услoвий рельефа (при пoдъёме на 10 м давление пoнижается примернo на 1 мм рт.ст.).